This is the latest recevied weather packets stored in our database for station/object KQ4OSL. If no packets are shown the sender has not sent any weather packets the latest 10 day(s).
| Time | Temp. | Humidity | Pressure | Rain* | Wind** | Luminosity | Snow |
|---|---|---|---|---|---|---|---|
| 1787532195 | 25° C | 88% | 1017.3 hPa | 0 mm | - | 0 W/m² | - |
| 1787531890 | 25° C | 87% | 1017.4 hPa | 0 mm | - | 0 W/m² | - |
| 1787531587 | 25.56° C | 84% | 1017.3 hPa | 0 mm | - | 0 W/m² | - |
| 1787531283 | 25.56° C | 86% | 1017.3 hPa | 0 mm | - | 0 W/m² | - |
| 1787530978 | 25.56° C | 86% | 1017.2 hPa | 0 mm | - | 1 W/m² | - |
| 1787530678 | 25.56° C | 82% | 1017.3 hPa | 0 mm | - | 1 W/m² | - |
| 1787530373 | 26.11° C | 84% | 1017.1 hPa | 0 mm | - | 2 W/m² | - |
| 1787530069 | 26.11° C | 83% | 1017.1 hPa | 0 mm | - | 4 W/m² | - |
| 1787529764 | 26.67° C | 82% | 1017.2 hPa | 0 mm | - | 5 W/m² | - |
| 1787529460 | 26.67° C | 80% | 1016.9 hPa | 0 mm | - | 8 W/m² | - |
| 1787529159 | 27.22° C | 79% | 1016.9 hPa | 0 mm | - | 13 W/m² | - |
| 1787528855 | 27.22° C | 77% | 1017.1 hPa | 0 mm | - | 15 W/m² | - |
| 1787528551 | 27.78° C | 77% | 1017 hPa | 0 mm | - | 18 W/m² | - |
| 1787528251 | 27.78° C | 76% | 1017 hPa | 0 mm | - | 20 W/m² | - |
| 1787527948 | 27.78° C | 76% | 1017 hPa | 0 mm | - | 22 W/m² | - |
| 1787527643 | 28.33° C | 78% | 1017 hPa | 0 mm | - | 24 W/m² | - |
| 1787527339 | 28.89° C | 75% | 1016.9 hPa | 0 mm | - | 27 W/m² | - |
| 1787527034 | 28.89° C | 72% | 1017.1 hPa | 0 mm | - | 30 W/m² | - |
| 1787526730 | 28.89° C | 71% | 1017 hPa | 0 mm | - | 32 W/m² | - |
| 1787526426 | 29.44° C | 71% | 1017.1 hPa | 0 mm | - | 34 W/m² | - |
| 1787526123 | 30° C | 71% | 1016.9 hPa | 0 mm | - | 36 W/m² | - |
| 1787525819 | 30.56° C | 68% | 1017.1 hPa | 0 mm | - | 62 W/m² | - |
| 1787525518 | 30° C | 68% | 1017 hPa | 0 mm | - | 53 W/m² | - |
| 1787525213 | 30° C | 67% | 1017 hPa | 0 mm | - | 58 W/m² | - |
| 1787524909 | 30° C | 67% | 1017 hPa | 0 mm | - | 45 W/m² | - |
* Rain latest hour (hover to see other rain measurements)
** Current wind speed in m/s (hover to see current wind gust speed)